OpenBCM V1.08-5-g2f4a (Linux)

Packet Radio Mailbox

IZ3LSV

[San Dona' di P. JN]

 Login: GUEST





  
I0OJJ  > KEPS     16.07.25 02:50l 341 Lines 16337 Bytes #118 (0) @ AMSAT
BID : ORB25197.1
Read: GUEST
Subj: 2Line Orbital Elements 25197.AMSAT
Path: IZ3LSV<IK6IHL<IK7NXU<HB9ON<HB9ON<PI8ZTM<PI8LAP<VE2PKT<VE3CGR<IR0AAB<
      I0OJJ
Sent: 250716/0025z @:I0OJJ.ITA.EU [Rome] obcm1.08-10-g596e
From: I0OJJ @ I0OJJ.ITA.EU (Gustavo)
To:   KEPS @ AMSAT
X-Info: This message was generated automatically


QST de W1STR

AMSAT Orbital Elements for Amateur Satellites in TLE Format
From Orbital Analysis Office
New England Sci-Tech STEM Education Center
Natick, MA July 16, 2025
To all radio amateurs


These element sets describe the orbits of various satellites 
in use by the amateur radio community. For details see:
www.amsat.org/keplerian-elements-formats/

A daily update of element sets is available at:
www.amsat.org/tle/daily-bulletin.txt
or without bulletin text:
www.amsat.org/tle/dailytle.txt


AO-07
1 07530U 74089B   25196.87513572 -.00000046  00000-0  25073-5 0  9997
2 07530 101.9937 201.5259 0012577  54.0716  11.3307 12.53690165318618
UO-11
1 14781U 84021B   25196.47580781  .00000886  00000-0  98831-4 0  9994
2 14781  97.7564 162.1402 0006929 208.1543 151.9301 14.89467430206987
AO-27
1 22825U 93061C   25196.79143110  .00000060  00000-0  39900-4 0  9998
2 22825  98.7349 258.5242 0008567  14.8934 345.2499 14.30808954659169
FO-29
1 24278U 96046B   25196.53641347 -.00000009  00000-0  29818-4 0  9996
2 24278  98.5711  85.6925 0348940 249.3889 106.9504 13.53250496427884
NOAA-15
1 25338U 98030A   25196.85190143  .00000149  00000-0  78869-4 0  9991
2 25338  98.5338 221.1077 0009067 250.7904 109.2296 14.26996802413574
GO-32
1 25397U 98043D   25196.51856732  .00000046  00000-0  39989-4 0  9992
2 25397  98.9723 176.3914 0002358  97.7624 262.3822 14.24322160403401
ISS
1 25544U 98067A   25196.81879947  .00007417  00000-0  13514-3 0  9992
2 25544  51.6345 165.1449 0002686  15.6719 344.4352 15.50562767519607
NO-44
1 26931U 01043C   25196.83111403  .00000074  00000-0  58767-4 0  9991
2 26931  67.0510  34.1107 0006274 276.8957  83.1431 14.31748511242453
SO-50
1 27607U 02058C   25196.12258861  .00000783  00000-0  11489-3 0  9997
2 27607  64.5529  90.8161 0060208 326.3134  33.4150 14.81709482214498
CO-55
1 27844U 03031E   25196.58476071  .00000225  00000-0  11697-3 0  9999
2 27844  98.6758 204.3934 0010922  83.9858 276.2565 14.24018609143792
CO-57
1 27848U 03031J   25196.55002801  .00000186  00000-0  10117-3 0  9998
2 27848  98.6786 204.3377 0010786  99.5320 260.7077 14.23350240143530
RS-22
1 27939U 03042A   25196.83807428  .00000720  00000-0  12195-3 0  9992
2 27939  98.3309   7.1718 0010194 253.2519 243.9160 14.72419467166160
CO-58
1 28895U 05043F   25196.63618507  .00001160  00000-0  19678-3 0  9995
2 28895  98.2542 341.4472 0014378 187.8893 172.2089 14.71106191 52249
CO-65
1 32785U 08021C   25196.58480566  .00003706  00000-0  26741-3 0  9990
2 32785  97.7880 168.0251 0011814  91.2966 268.9613 15.04705608934497
CO-66
1 32791U 08021J   25196.40634275  .00009180  00000-0  43695-3 0  9995
2 32791  97.7296 177.2665 0005324  63.5529 296.6251 15.19383395935939
RS-30
1 32953U 08025A   25196.85895819  .00000009  00000-0 -46128-5 0  9999
2 32953  82.5009 204.6164 0018547 330.1831  29.8191 12.43166253778044
NOAA-19
1 33591U 09005A   25196.80302191  .00000132  00000-0  94318-4 0  9997
2 33591  98.9957 261.7081 0012711 260.4482  99.5253 14.13389426847220
SRMSAT
1 37841U 11058D   25196.59290747  .00000364  00000-0  54163-4 0  9990
2 37841  19.9726 296.6223 0011872 100.5591  20.6845 14.11444461710204
ZACUBE-1
1 39417U 13066B   25196.61865169  .00003636  00000-0  31628-3 0  9996
2 39417  97.7811 153.4502 0042143 292.3691  67.3067 14.96927085630307
Delfi-N3xt
1 39428U 13066N   25196.72505293  .00004318  00000-0  43953-3 0  9991
2 39428  97.8326 113.9793 0082554 241.0068 118.2856 14.88748100624634
GOMX-1
1 39430U 13066Q   25196.82369018  .00001463  00000-0  23186-3 0  9992
2 39430  97.6805  53.2586 0133790  76.5704 285.0374 14.67756935620726
LO-74
1 39440U 13066AA  25196.60509569  .00003392  00000-0  34343-3 0  9996
2 39440  97.8504 140.9217 0063353  61.9388 298.8217 14.90133140626809
AO-73
1 39444U 13066AE  25196.44186303  .00005285  00000-0  39341-3 0  9995
2 39444  97.7843 158.5025 0040678 265.0390  94.6190 15.02727388628974
DTUSAT-2
1 40030U 14033W   25196.90756956  .00004120  00000-0  26750-3 0  9998
2 40030  98.0575 170.4969 0007430 303.8546  56.1974 15.08640738602385
EO-80
1 40032U 14033Y   25196.85958510  .00004469  00000-0  28918-3 0  9998
2 40032  98.0458 170.0509 0007076 230.0003 130.0604 15.08716562602367
LILACSAT-2
1 40908U 15049K   25196.81908696  .00009292  00000-0  23774-3 0  9998
2 40908  97.5046 218.0547 0009942  41.4204 318.7793 15.39603015543801
IO-86
1 40931U 15052B   25151.18580175  .00001241  00000-0  78118-4 0  9996
2 40931   6.0006  24.0987 0012733 338.8432  21.1169 14.78805930523047
Horyu-4
1 41340U 16012D   25196.44100434  .00017143  00000-0  43828-3 0  9999
2 41340  30.9959 250.5375 0006531  80.5098 279.6286 15.38154512518314
Lapan A3
1 41603U 16040E   25196.86493208  .00002670  00000-0  94082-4 0  9990
2 41603  97.1375 200.0534 0012349 133.3689 226.8583 15.30058844503330
CAS-2T
1 41847U 16066G   25196.79567743  .00000946  00000-0  14200-3 0  9993
2 41847  98.4191 270.9391 0346837  69.0450 294.7488 14.43587060456245
CAS-4B
1 42759U 17034B   25196.83314998  .00061293  00000-0  53596-3 0  9992
2 42759  43.0051 105.0913 0020771 189.5073 170.5403 15.67774392448288
CAS-4A
1 42761U 17034D   25196.83334567  .00070414  00000-0  57380-3 0  9999
2 42761  43.0088 101.8008 0021988 194.3177 165.7069 15.69397125448315
TechnoSat
1 42829U 17042E   25196.82358932  .00002819  00000-0  21960-3 0  9993
2 42829  97.3871   3.7926 0017017 153.7723 206.4367 15.01866490436161
AO-91
1 43017U 17073E   25196.89584242  .00007475  00000-0  37738-3 0  9992
2 43017  97.5208  66.7483 0172613  43.4158 318.0515 15.05248351414676
S-Net D
1 43186U 18014G   25196.69980152  .00003252  00000-0  19249-3 0  9999
2 43186  97.5583  99.2384 0010828  99.4183 260.8271 15.12093198407836
S-Net B
1 43187U 18014H   25196.24244365  .00003066  00000-0  18176-3 0  9991
2 43187  97.5593  98.7594 0011589  96.8056 263.4493 15.12070466407760
S-Net A
1 43188U 18014J   25196.63389348  .00003252  00000-0  19243-3 0  9999
2 43188  97.5599  99.3016 0011432  96.3208 263.9325 15.12097789407827
S-Net C
1 43189U 18014K   25196.70817699  .00003177  00000-0  18817-3 0  9995
2 43189  97.5614  99.3954 0013007  89.8629 270.4091 15.12069743406383
Ten-Koh
1 43677U 18084G   25196.46932948  .00001556  00000-0  12791-3 0  9996
2 43677  98.0848  10.1450 0008613 136.4370 223.7534 15.00701664365627
PO-101
1 43678U 18084H   25196.78294656  .00002219  00000-0  19094-3 0  9999
2 43678  98.1066  14.2929 0009007 152.9311 207.2381 14.98464927365804
QO-100
1 43700U 18090A   25196.49238354  .00000152  00000-0  00000-0 0  9991
2 43700   0.0188  52.1878 0002556 101.1383 343.2926  1.00271212 24303
MinXSS-2
1 43758U 18099A   25196.45641666  .00012661  00000-0  48477-3 0  9994
2 43758  97.4995 262.6269 0011934  37.4806 322.7262 15.26623164362440
AO-95
1 43770U 18099N   25196.58602593  .00007325  00000-0  36547-3 0  9994
2 43770  97.4888 254.2816 0012086  89.7853 270.4765 15.17746982362015
RANGE-A
1 43773U 18099R   25196.86732402  .00003402  00000-0  21664-3 0  9997
2 43773  97.4460 244.2183 0012826  71.3852 288.8769 15.09354996361699
MOVE-II
1 43780U 18099Y   25194.80194206  .15913345  26116-5  37118-3 0  9995
2 43780  97.4526 273.8800 0018736 270.1080  89.8075 16.44566529363241
SNUSat 2
1 43782U 18099AA  25196.87113218  .00004634  00000-0  25102-3 0  9995
2 43782  97.4573 251.0173 0012604  36.1386 324.0695 15.15035268361993
SnugLite
1 43784U 18099AC  25196.87193065  .00006298  00000-0  31214-3 0  9994
2 43784  97.4382 250.6537 0004343  52.4357 307.7271 15.18090233362144
ITASat 1
1 43786U 18099AE  25196.58708650  .00004395  00000-0  24985-3 0  9999
2 43786  97.4539 250.1412 0015855  84.0661 276.2377 15.13291079361902
EAGLET 1
1 43790U 18099AJ  25196.68564076  .00003362  00000-0  21443-3 0  9996
2 43790  97.4740 250.0730 0013476  69.6558 290.6118 15.09297534361511
ESEO
1 43792U 18099AL  25196.69335000  .00000998  00000-0  78937-4 0  9995
2 43792  97.4426 242.8580 0013418  42.3477 317.8782 15.02705983361244
CSIM
1 43793U 18099AM  25196.49280856  .00113257  00000-0  48981-3 0  9990
2 43793  97.4746 277.4135 0001611 157.2107 202.9234 15.84610975363310
JO-97
1 43803U 18099AX  25196.43509771  .00008704  00000-0  38974-3 0  9997
2 43803  97.4636 255.2028 0007706  32.6766 327.4945 15.21479026362225
Suomi 100
1 43804U 18099AY  25196.64015289  .00007788  00000-0  37529-3 0  9993
2 43804  97.4702 254.5974 0012576  30.0532 330.1422 15.18936017362175
ISAT
1 43879U 18111D   25196.52021249  .00017005  00000-0  56892-3 0  9997
2 43879  97.5926 111.7312 0010649  76.6788 283.5639 15.30995040359198
UWE-4
1 43880U 18111E   25196.27012964  .00011434  00000-0  43670-3 0  9995
2 43880  97.5869 109.6982 0013874  86.8642 273.4184 15.26711897359071
Sparrow
1 43881U 18111F   25196.73361939  .00018177  00000-0  58387-3 0  9998
2 43881  97.6076 114.9708 0009020 107.1756 253.0473 15.32307570357326
Prox-1
1 44339U 19036A   25196.21129434  .00007880  00000-0  97222-3 0  9999
2 44339  23.9955 187.6372 0007882 119.6643 240.4640 14.80506023323307
SONATE
1 44400U 19038Q   25185.47540524  .09032085  27445-5  31847-3 0  9995
2 44400  97.6609 216.4776 0012462 246.7970 113.2018 16.43248376333575
Taurus 1
1 44530U 19059C   25196.83179805  .00003843  00000-0  70797-3 0  9995
2 44530  98.6108 337.9605 0007951 281.2791  78.7518 14.66166853309256
Duchifat 3
1 44854U 19089C   25196.87485701  .00039240  00000-0  69762-3 0  9996
2 44854  36.9414 123.9538 0007044 261.5088  98.4872 15.49194615308576
TO-108
1 44881U 19093C   25196.79574988  .00000650  00000-0  80987-4 0  9994
2 44881  97.7915 271.6877 0015191 110.9677 249.3166 14.85658821301453
